�N����,����,�~����,�C��,���x,�C��,����,���ϕ���,�ő�u�ԕ���,�ő厞����,���˗�,�I�_���x,�n�����x,�ő啗���N��,DTYPE
"21/03/10","00:10",0.0,5.8,90.0,1016.6,314.0,1.7,2.5,325.2,0.00,4.3,130.0,"00:05:12",1
"21/03/10","00:20",0.0,5.9,90.4,1016.4,322.8,1.7,2.2,320.9,0.00,4.5,130.0,"00:17:28",1
"21/03/10","00:30",0.0,6.0,90.7,1016.4,303.2,1.7,2.6,307.5,0.00,4.6,130.0,"00:26:48",1
"21/03/10","00:40",0.0,6.5,90.9,1016.6,295.0,1.8,3.3,326.6,0.00,5.2,130.0,"00:34:32",1
"21/03/10","00:50",0.0,6.4,91.1,1016.4,312.8,1.3,2.7,323.3,0.00,5.1,130.0,"00:49:44",1
"21/03/10","01:00",0.0,6.1,91.4,1016.6,306.5,1.1,1.9,308.8,0.00,4.8,130.0,"00:58:08",1
"21/03/10","01:10",0.0,6.0,91.7,1016.6,315.3,2.1,2.8,318.3,0.00,4.8,130.0,"01:02:08",1
"21/03/10","01:20",0.0,6.0,91.9,1016.4,310.2,1.7,2.1,317.7,0.00,4.8,130.0,"01:14:32",1
"21/03/10","01:30",0.0,6.0,92.2,1016.4,279.1,1.1,1.6,277.3,0.00,4.9,130.0,"01:27:36",1
"21/03/10","01:40",0.0,6.1,92.4,1016.4,309.0,1.6,2.5,318.7,0.00,5.0,130.0,"01:36:16",1
"21/03/10","01:50",0.0,6.1,92.6,1016.6,310.1,1.6,2.4,320.2,0.00,5.0,130.0,"01:45:12",1
"21/03/10","02:00",0.0,6.2,92.8,1016.4,303.5,1.6,2.7,323.2,0.00,5.2,130.0,"01:56:48",1
"21/03/10","02:10",0.0,6.2,92.9,1016.6,291.2,1.1,1.9,270.4,0.00,5.2,130.0,"02:04:16",1
"21/03/10","02:20",0.0,6.4,93.0,1016.6,324.6,1.1,2.2,318.3,0.00,5.4,130.0,"02:15:04",1
"21/03/10","02:30",0.0,6.3,93.0,1016.6,316.7,1.8,2.7,313.2,0.00,5.3,130.0,"02:24:08",1
"21/03/10","02:40",0.0,6.1,93.3,1016.4,303.1,1.6,2.5,323.6,0.00,5.1,130.0,"02:39:52",1
"21/03/10","02:50",0.0,6.1,93.4,1016.6,320.7,1.8,2.6,319.7,0.00,5.2,130.0,"02:43:20",1
"21/03/10","03:00",0.0,6.4,93.6,1016.6,323.7,2.7,3.6,316.2,0.00,5.5,130.0,"02:55:28",1
"21/03/10","03:10",0.0,7.0,93.3,1016.8,324.4,3.6,5.5,332.0,0.00,6.0,130.0,"03:01:28",1
"21/03/10","03:20",0.0,7.3,92.9,1016.8,325.5,4.7,6.7,319.1,0.00,6.3,130.0,"03:16:32",1
"21/03/10","03:30",0.0,7.2,92.7,1017.1,327.9,4.7,6.4,318.9,0.00,6.1,130.0,"03:23:04",1
"21/03/10","03:40",0.0,7.1,92.4,1016.8,330.3,4.1,5.5,331.6,0.00,6.0,130.0,"03:31:12",1
"21/03/10","03:50",0.0,7.1,92.2,1016.6,331.7,5.0,7.4,317.4,0.00,6.0,130.0,"03:45:04",1
"21/03/10","04:00",0.0,7.1,92.0,1016.6,328.7,5.1,7.1,335.3,0.00,5.9,130.0,"03:55:44",1
"21/03/10","04:10",0.0,7.3,91.6,1016.8,328.5,4.6,6.2,331.7,0.00,6.1,130.0,"04:04:16",1
"21/03/10","04:20",0.0,7.0,91.3,1016.8,328.4,3.0,4.7,327.9,0.00,5.7,130.0,"04:11:12",1
"21/03/10","04:30",0.0,7.0,91.3,1017.3,324.4,3.7,5.2,321.6,0.00,5.7,130.0,"04:28:32",1
"21/03/10","04:40",0.0,7.0,90.9,1017.3,323.4,3.9,5.9,331.1,0.00,5.7,130.0,"04:34:40",1
"21/03/10","04:50",0.0,6.9,90.9,1017.8,327.9,3.9,5.2,333.8,0.00,5.6,130.0,"04:46:00",1
"21/03/10","05:00",0.0,6.8,90.8,1018.0,314.1,3.5,5.6,335.1,0.00,5.4,130.0,"04:50:24",1
"21/03/10","05:10",0.0,6.5,90.6,1017.5,298.7,2.1,3.2,309.3,0.00,5.1,130.0,"05:00:16",1
"21/03/10","05:20",0.0,6.1,90.6,1017.8,306.4,1.6,3.2,315.9,0.00,4.7,130.0,"05:18:56",1
"21/03/10","05:30",0.0,5.5,90.7,1017.5,309.5,1.3,2.7,323.8,0.00,4.1,130.0,"05:20:16",1
"21/03/10","05:40",0.0,5.1,90.8,1018.0,299.0,1.5,2.4,310.4,0.00,3.8,130.0,"05:36:40",1
"21/03/10","05:50",0.0,4.8,91.1,1018.2,292.4,1.6,2.4,309.6,0.00,3.5,130.0,"05:42:00",1
"21/03/10","06:00",0.0,4.5,91.4,1018.5,296.9,1.6,2.5,321.4,0.00,3.3,130.0,"05:56:08",1
"21/03/10","06:10",0.0,4.6,91.6,1018.0,316.5,1.6,2.6,316.8,0.00,3.4,130.0,"06:07:56",1
"21/03/10","06:20",0.0,4.6,91.9,1018.2,321.2,1.8,2.6,327.6,0.00,3.4,130.0,"06:19:36",1
"21/03/10","06:30",0.0,4.3,92.0,1018.2,304.0,1.7,3.1,327.4,0.00,3.2,130.0,"06:26:32",1
"21/03/10","06:40",0.0,4.0,92.4,1018.2,304.7,1.6,2.5,323.3,0.00,2.9,130.0,"06:32:48",1
"21/03/10","06:50",0.0,4.1,92.6,1018.0,301.2,1.5,2.1,304.3,0.00,3.1,130.0,"06:45:36",1
"21/03/10","07:00",0.0,4.4,92.9,1018.2,286.4,1.1,2.4,319.3,0.00,3.4,130.0,"06:59:38",1
"21/03/10","07:10",0.0,4.6,93.0,1018.5,285.9,1.1,2.6,323.6,0.01,3.6,130.0,"07:04:48",1
"21/03/10","07:20",0.0,5.2,93.2,1018.5,307.3,1.1,2.4,318.7,0.01,4.2,130.0,"07:12:56",1
"21/03/10","07:30",0.0,5.4,93.4,1019.0,269.8,0.7,1.9,277.9,0.03,4.5,130.0,"07:27:44",1
"21/03/10","07:40",0.0,5.9,93.6,1019.2,296.3,1.2,2.4,310.9,0.04,5.0,130.0,"07:38:24",1
"21/03/10","07:50",0.0,7.1,93.7,1019.4,308.1,2.3,3.6,314.1,0.05,6.2,130.0,"07:48:40",1
"21/03/10","08:00",0.0,8.1,92.8,1019.4,320.5,2.8,4.3,317.6,0.06,7.0,130.0,"07:52:40",1
"21/03/10","08:10",0.0,8.4,91.8,1019.9,312.6,2.8,4.4,329.5,0.07,7.2,130.0,"08:03:52",1
"21/03/10","08:20",0.0,9.1,90.4,1020.1,305.2,2.6,4.8,318.8,0.08,7.7,130.0,"08:12:40",1
"21/03/10","08:30",0.0,9.4,88.3,1020.6,300.4,2.2,3.4,315.0,0.04,7.6,130.0,"08:26:16",1
"21/03/10","08:40",0.0,9.8,85.9,1020.8,308.0,2.5,3.3,311.6,0.04,7.6,130.0,"08:32:00",1
"21/03/10","08:50",0.0,10.0,83.4,1020.8,308.7,2.6,4.5,317.7,0.06,7.4,130.0,"08:41:36",1
"21/03/10","09:00",0.0,10.1,80.8,1021.3,320.7,2.3,4.0,334.1,0.08,7.0,130.0,"08:53:52",1
"21/03/10","09:10",0.0,10.6,78.5,1020.8,283.2,1.6,3.4,227.8,0.12,7.1,130.0,"09:09:52",1
"21/03/10","09:20",0.0,11.1,76.8,1020.8,217.5,1.1,2.7,202.2,0.21,7.2,130.0,"09:12:00",1
"21/03/10","09:30",0.0,12.5,73.3,1021.5,319.6,1.7,4.8,339.9,0.37,7.9,130.0,"09:25:12",1
"21/03/10","09:40",0.0,13.2,68.6,1021.5,287.1,1.6,4.8,341.5,0.37,7.6,130.0,"09:36:48",1
"21/03/10","09:50",0.0,12.9,65.7,1021.3,316.3,2.2,5.0,323.9,0.20,6.7,130.0,"09:46:56",1
"21/03/10","10:00",0.0,12.5,65.2,1021.3,314.1,3.0,5.6,339.4,0.13,6.2,130.0,"09:56:16",1
"21/03/10","10:10",0.0,12.3,65.2,1021.5,320.8,3.6,7.5,346.1,0.16,6.0,130.0,"10:03:04",1
"21/03/10","10:20",0.0,12.6,64.5,1021.3,332.6,3.2,6.8,328.1,0.29,6.1,130.0,"10:11:20",1
"21/03/10","10:30",0.0,13.3,61.7,1021.3,315.3,3.0,6.6,336.4,0.46,6.2,130.0,"10:27:52",1
"21/03/10","10:40",0.0,13.8,60.3,1021.1,340.0,2.1,5.2,334.4,0.43,6.3,130.0,"10:35:20",1
"21/03/10","10:50",0.0,13.9,57.9,1021.1,318.0,2.8,6.6,331.4,0.33,5.8,130.0,"10:44:56",1
"21/03/10","11:00",0.0,13.6,57.6,1020.4,334.4,4.0,10.0,336.1,0.29,5.4,130.0,"10:57:04",1
"21/03/10","11:10",0.0,14.1,57.2,1020.6,340.6,4.6,8.7,1.3,0.41,5.8,130.0,"11:08:00",1
"21/03/10","11:20",0.0,14.3,53.1,1020.6,344.7,4.6,9.4,344.0,0.48,4.9,130.0,"11:19:44",1
"21/03/10","11:30",0.0,14.7,53.6,1020.6,345.7,4.5,9.7,299.3,0.57,5.4,130.0,"11:23:20",1
"21/03/10","11:40",0.0,14.6,54.6,1020.4,342.5,4.6,8.0,339.2,0.50,5.6,130.0,"11:33:36",1
"21/03/10","11:50",0.0,14.5,55.0,1020.1,330.1,4.2,8.1,331.1,0.35,5.6,130.0,"11:43:04",1
"21/03/10","12:00",0.0,14.1,55.4,1020.6,342.8,4.9,10.9,346.3,0.32,5.3,130.0,"11:58:56",1
"21/03/10","12:10",0.0,14.8,56.3,1020.6,334.9,4.7,8.3,325.9,0.56,6.2,130.0,"12:04:40",1
"21/03/10","12:20",0.0,15.0,52.6,1020.4,347.9,4.4,9.5,331.7,0.60,5.4,130.0,"12:14:24",1
"21/03/10","12:30",0.0,15.0,52.2,1020.8,345.2,4.9,9.4,324.6,0.57,5.3,130.0,"12:26:56",1
"21/03/10","12:40",0.0,14.5,53.7,1020.4,341.1,4.6,10.8,325.8,0.48,5.3,130.0,"12:32:16",1
"21/03/10","12:50",0.0,13.9,54.7,1020.6,345.2,4.1,9.5,336.5,0.28,5.0,130.0,"12:43:44",1
"21/03/10","13:00",0.0,13.8,56.2,1020.4,339.5,4.2,11.0,324.5,0.40,5.3,130.0,"12:57:04",1
"21/03/10","13:10",0.0,13.6,56.7,1020.8,339.9,5.5,11.9,337.9,0.45,5.2,130.0,"13:03:04",1
"21/03/10","13:20",0.0,13.7,54.9,1020.4,345.4,5.6,11.6,335.4,0.54,4.8,130.0,"13:11:12",1
"21/03/10","13:30",0.0,13.7,56.9,1020.6,350.2,4.2,11.4,337.6,0.54,5.4,130.0,"13:24:16",1
"21/03/10","13:40",0.0,13.1,57.3,1020.4,8.5,4.6,7.4,6.9,0.53,4.9,130.0,"13:37:28",1
"21/03/10","13:50",0.0,12.7,59.2,1020.6,2.2,4.5,7.3,339.6,0.48,5.0,130.0,"13:40:16",1
"21/03/10","14:00",0.0,12.9,59.6,1020.6,349.7,4.2,8.2,341.8,0.50,5.3,130.0,"13:54:00",1
"21/03/10","14:10",0.0,12.4,60.3,1020.4,6.0,4.0,8.2,327.0,0.43,5.0,130.0,"14:09:44",1
"21/03/10","14:20",0.0,12.5,59.3,1020.6,346.3,4.0,12.5,341.3,0.46,4.8,130.0,"14:11:52",1
"21/03/10","14:30",0.0,12.6,58.9,1020.4,344.7,4.1,8.5,334.9,0.41,4.8,130.0,"14:20:24",1
"21/03/10","14:40",0.0,12.2,58.5,1020.6,2.0,3.9,8.7,4.8,0.35,4.3,130.0,"14:33:12",1
"21/03/10","14:50",0.0,11.9,57.8,1020.8,0.7,3.6,8.1,353.8,0.36,3.9,130.0,"14:43:12",1
"21/03/10","15:00",0.0,11.9,55.7,1020.6,359.2,3.9,7.5,27.1,0.38,3.4,130.0,"14:51:04",1
"21/03/10","15:10",0.0,12.1,54.5,1020.6,357.8,3.9,10.2,352.8,0.37,3.3,130.0,"15:04:56",1
"21/03/10","15:20",0.0,12.2,53.9,1020.8,344.2,4.2,11.2,337.6,0.35,3.2,130.0,"15:17:20",1
"21/03/10","15:30",0.0,12.0,52.8,1021.1,339.6,4.0,7.1,339.3,0.32,2.7,130.0,"15:23:28",1
"21/03/10","15:40",0.0,12.2,50.3,1021.3,348.3,3.4,6.7,333.5,0.30,2.2,130.0,"15:32:56",1
"21/03/10","15:50",0.0,12.0,49.9,1020.8,345.6,3.4,6.3,339.5,0.27,1.9,130.0,"15:44:08",1
"21/03/10","16:00",0.0,11.7,49.4,1021.1,350.2,3.9,7.0,5.6,0.25,1.5,130.0,"15:57:12",1
"21/03/10","16:10",0.0,11.5,48.8,1021.3,0.4,3.5,7.8,353.0,0.22,1.1,130.0,"16:09:28",1
"21/03/10","16:20",0.0,11.0,49.2,1021.5,348.2,4.5,8.8,347.7,0.19,0.8,130.0,"16:18:32",1
"21/03/10","16:30",0.0,10.7,49.8,1021.3,344.5,4.5,9.3,330.6,0.16,0.7,130.0,"16:21:12",1
"21/03/10","16:40",0.0,10.6,49.6,1021.5,341.7,3.9,8.2,323.1,0.14,0.5,130.0,"16:31:36",1
"21/03/10","16:50",0.0,10.4,49.6,1021.8,351.9,4.1,7.2,329.2,0.11,0.4,130.0,"16:41:20",1
"21/03/10","17:00",0.0,10.0,49.8,1021.5,338.9,5.6,10.2,333.0,0.09,0.0,130.0,"16:56:40",1
"21/03/10","17:10",0.0,9.9,50.3,1022.0,341.4,4.7,10.5,318.3,0.06,0.1,130.0,"17:03:04",1
"21/03/10","17:20",0.0,9.8,51.6,1021.5,327.8,3.5,6.5,332.6,0.04,0.4,130.0,"17:15:12",1
"21/03/10","17:30",0.0,9.4,52.1,1021.8,331.6,5.0,7.9,330.3,0.03,0.1,130.0,"17:20:48",1
"21/03/10","17:40",0.0,9.1,52.3,1021.8,320.7,4.1,7.4,313.9,0.01,-0.1,130.0,"17:37:44",1
"21/03/10","17:50",0.0,8.7,51.8,1022.0,320.0,4.4,7.2,334.7,0.00,-0.6,130.0,"17:44:48",1
"21/03/10","18:00",0.0,8.5,52.7,1022.0,312.7,4.2,7.9,328.6,0.00,-0.6,130.0,"17:59:52",1
"21/03/10","18:10",0.0,8.2,54.0,1022.3,332.2,4.4,7.3,328.4,0.00,-0.5,130.0,"18:04:16",1
"21/03/10","18:20",0.0,7.8,56.2,1022.0,329.9,4.5,7.9,329.0,0.00,-0.3,130.0,"18:13:44",1
"21/03/10","18:30",0.0,7.6,57.5,1022.0,329.9,3.9,7.1,335.9,0.00,-0.2,130.0,"18:21:12",1
"21/03/10","18:40",0.0,7.4,58.8,1022.0,326.4,3.1,5.9,340.7,0.00,-0.1,130.0,"18:38:24",1
"21/03/10","18:50",0.0,7.2,60.3,1022.3,327.9,2.1,4.8,358.5,0.00,0.1,130.0,"18:47:28",1
"21/03/10","19:00",0.0,7.1,61.6,1022.5,300.1,3.0,7.2,300.8,0.00,0.3,130.0,"18:59:52",1
"21/03/10","19:10",0.0,6.8,62.1,1022.3,296.9,1.8,6.8,328.2,0.00,0.1,130.0,"19:00:16",1
"21/03/10","19:20",0.0,6.6,63.5,1022.5,314.9,3.0,6.5,323.7,0.00,0.2,130.0,"19:14:24",1
"21/03/10","19:30",0.0,6.8,63.3,1022.3,330.3,2.2,6.7,328.3,0.00,0.4,130.0,"19:24:24",1
"21/03/10","19:40",0.0,6.6,63.0,1022.7,3.9,1.3,3.2,306.2,0.00,0.1,130.0,"19:30:08",1
"21/03/10","19:50",0.0,6.4,63.6,1023.0,347.7,1.5,3.3,327.7,0.00,0.0,130.0,"19:48:40",1
"21/03/10","20:00",0.0,6.4,64.0,1023.0,336.5,1.7,3.9,312.9,0.00,0.1,130.0,"19:59:44",1
"21/03/10","20:10",0.0,6.0,64.7,1022.7,332.6,1.5,3.5,328.9,0.00,-0.1,130.0,"20:06:08",1
"21/03/10","20:20",0.0,5.7,65.7,1023.0,322.6,1.2,3.2,342.3,0.00,-0.2,130.0,"20:10:40",1
"21/03/10","20:30",0.0,5.4,66.6,1023.0,319.9,1.3,3.4,332.8,0.00,-0.3,130.0,"20:21:44",1
"21/03/10","20:40",0.0,5.0,67.7,1023.0,269.3,1.1,2.4,323.1,0.00,-0.4,130.0,"20:35:52",1
"21/03/10","20:50",0.0,4.5,69.1,1023.0,303.3,1.6,3.4,330.8,0.00,-0.6,130.0,"20:44:34",1
"21/03/10","21:00",0.0,4.8,70.0,1022.7,320.9,1.5,4.2,333.9,0.00,-0.2,130.0,"20:54:24",1
"21/03/10","21:10",0.0,4.6,70.4,1022.7,298.9,1.1,2.5,336.3,0.00,-0.3,130.0,"21:02:56",1
"21/03/10","21:20",0.0,4.3,71.0,1023.0,288.7,1.1,2.6,317.2,0.00,-0.4,130.0,"21:11:20",1
"21/03/10","21:30",0.0,4.4,71.4,1023.2,300.2,1.8,4.3,298.3,0.00,-0.3,130.0,"21:29:46",1
"21/03/10","21:40",0.0,5.2,70.7,1023.4,9.8,1.6,4.0,331.1,0.00,0.4,130.0,"21:30:24",1
"21/03/10","21:50",0.0,5.5,68.6,1023.4,12.8,1.5,4.2,348.9,0.00,0.2,130.0,"21:40:48",1
"21/03/10","22:00",0.0,5.5,67.5,1023.7,344.0,1.5,3.2,329.9,0.00,0.0,130.0,"21:55:44",1
"21/03/10","22:10",0.0,5.3,67.6,1023.7,350.6,0.8,3.1,313.1,0.00,-0.2,130.0,"22:00:48",1
"21/03/10","22:20",0.0,5.0,68.7,1023.4,344.4,1.2,2.9,349.8,0.00,-0.2,130.0,"22:11:28",1
"21/03/10","22:30",0.0,4.6,69.3,1023.7,335.6,2.1,3.7,334.4,0.00,-0.5,130.0,"22:24:50",1
"21/03/10","22:40",0.0,4.6,70.4,1023.4,330.6,4.1,6.5,325.5,0.00,-0.3,130.0,"22:37:36",1
"21/03/10","22:50",0.0,4.6,70.6,1023.4,323.7,3.9,6.0,328.5,0.00,-0.2,130.0,"22:41:44",1
"21/03/10","23:00",0.0,4.7,71.1,1023.9,324.0,4.1,7.3,340.1,0.00,0.0,130.0,"22:58:24",1
"21/03/10","23:10",0.0,4.9,70.3,1023.7,315.7,3.1,6.4,334.6,0.00,0.0,130.0,"23:01:20",1
"21/03/10","23:20",0.0,4.8,69.3,1024.1,310.9,3.1,5.7,305.1,0.00,-0.3,130.0,"23:11:52",1
"21/03/10","23:30",0.0,4.8,69.3,1023.9,313.9,3.0,4.9,327.5,0.00,-0.3,130.0,"23:26:32",1
"21/03/10","23:40",0.0,4.4,69.2,1023.7,292.7,0.8,2.8,307.6,0.00,-0.7,130.0,"23:30:32",1
"21/03/10","23:50",0.0,4.0,70.2,1023.7,318.7,2.1,2.7,309.0,0.00,-0.9,130.0,"23:44:00",1
"21/03/10","24:00",0.0,3.6,71.4,1023.9,305.3,2.1,3.7,326.6,0.00,-1.0,130.0,"23:53:20",1
